This demonstration page uses our WeatherBlox Daily Observations layout. Learn more.

Left ArrowRight Arrow

41.86663, -103.66717

Hourly Observations for March 19, 2021

Temp ( °F °C ) Dew Point ( °F °C ) Humidity (%) Winds ( mph kmh ) Pressure ( in mb ) Visibility ( mi km ) Precip ( " mm )
12:53 am 00:53 Clear 30 -1.1 27 -2.8 88 88 ESE 10 17 30.33 1027 9 14.48406 0 0
1:53 am 01:53 Clear 29 -1.7 27 -2.8 92 92 ESE 10 17 30.32 1027 10 16.0934 0 0
2:53 am 02:53 Clear 29 -1.7 27 -2.8 92 92 E 10 17 30.3 1026 10 16.0934 0 0
3:53 am 03:53 Clear 29 -1.7 27 -2.8 92 92 E 10 17 30.27 1025 10 16.0934 0 0
4:53 am 04:53 Clear 29 -1.7 27 -2.8 92 92 E 13 20 30.26 1025 10 16.0934 0 0
5:53 am 05:53 Clear 29 -1.7 26 -3.3 89 89 E 10 17 30.26 1025 10 16.0934 0 0
6:53 am 06:53 Clear 28 -2.2 25 -3.9 88 88 E 12 19 30.26 1025 10 16.0934 0 0
7:53 am 07:53 Sunny 30 -1.1 27 -2.8 88 88 E 12 19 30.27 1025 10 16.0934 0 0
8:53 am 08:53 Sunny 32 0 29 -1.7 88 88 ESE 13 20 30.26 1025 10 16.0934 0 0
9:53 am 09:53 Sunny 35 1.7 32 0 89 89 E 12 19 30.24 1024 10 16.0934 0 0
10:53 am 10:53 Sunny 39 3.9 33 0.6 79 79 E 10 17 30.22 1023 10 16.0934 0 0
11:53 am 11:53 Sunny 42 5.6 37 2.8 82 82 E 10 17 30.2 1023 10 16.0934 0 0
12:53 pm 12:53 Sunny 47 8.3 41 5 80 80 SE 10 17 30.16 1021 10 16.0934 0 0
1:53 pm 13:53 Sunny 50 10 44 6.7 80 80 SSE 10 17 30.14 1021 10 16.0934 0 0
2:53 pm 14:53 Sunny 51 10.6 45 7.2 80 80 SSE 8 13 30.12 1020 10 16.0934 0 0
3:53 pm 15:53 Sunny 52 11.1 46 7.8 80 80 SSE 9 15 30.12 1020 10 16.0934 0 0
4:53 pm 16:53 Sunny 52 11.1 46 7.8 80 80 SE 10 17 30.1 1019 10 16.0934 0 0
5:53 pm 17:53 Sunny 49 9.4 40 4.4 71 71 SSE 13 20 30.1 1019 10 16.0934 0 0
6:53 pm 18:53 Sunny 45 7.2 35 1.7 68 68 SE 8 13 30.12 1020 10 16.0934 0 0
7:53 pm 19:53 Clear 40 4.4 33 0.6 77 77 E 8 13 30.13 1020 10 16.0934 0 0
8:53 pm 20:53 Clear 39 3.9 33 0.6 79 79 ESE 8 13 30.13 1020 9 14.48406 0 0
9:53 pm 21:53 Clear 38 3.3 33 0.6 83 83 E 7 11 30.13 1020 8 12.87472 0 0
10:53 pm 22:53 Clear 37 2.8 33 0.6 86 86 E 10 17 30.11 1020 7 11.26538 0 0
11:53 pm 23:53 Clear 37 2.8 34 1.1 89 89 E 10 17 30.07 1018 9 14.48406 0 0

Powered by AerisWeather